Weather History for Atka, AK

Change the Weather History Date:

Sunday, March 2, 2014

  Actual Average (PADK) Record (PADK)
Temperature  
Mean Temperature 40 °F -  
Max Temperature 42 °F 38 °F 55 °F (2013)
Min Temperature 37 °F 30 °F 13 °F (1959)
Degree Days  
Heating Degree Days 26    
Moisture  
Dew Point 32 °F    
Average Humidity 72    
Maximum Humidity 87    
Minimum Humidity 65    
Precipitation  
Precipitation 0.00 in - - ()
Sea Level Pressure  
Sea Level Pressure 29.54 in    
Wind  
Wind Speed 11 mph (East)    
Max Wind Speed 24 mph    
Max Gust Speed 34 mph    
Visibility 9 miles    
Events      
Averages and records for this station are not official NWS values.
T = Trace of Precipitation, MM = Missing Value Source: NWS Daily Summary

Daily Weather History Graph

Daily Weather History Graph

Search for Another Location

Airport:

Trip Planner

Search our weather history database for the weather conditions in past years. The results will help you decide how hot, cold, wet, or windy it might be!

Date:

Astronomy

Mar. 02, 2014 Rise Set
Actual Time 8:19 AM HAST 7:18 PM HAST
Civil Twilight 7:46 AM HAST 7:52 PM HAST
Nautical Twilight 7:06 AM HAST 8:31 PM HAST
Astronomical Twilight 6:27 AM HAST 9:11 PM HAST
Moon 8:42 AM HAST (3/2) 9:52 PM HAST (3/2)
Length of Visible Light 12h 06m
Length of Day
10h 58m
Waxing Crescent, 3% of the Moon is Illuminated
Mar 2
Waxing Crescent
Mar 8
First Quarter
Mar 16
Full
Mar 23
Last Quarter
Mar 30
New

Hourly Weather History & Observations

Time (HAST) Temp. Windchill Dew Point Humidity Pressure Visibility Wind Dir Wind Speed Gust Speed Precip Events Conditions
12:16 AM 41.0 °F 33.1 °F 30.2 °F 65% 29.46 in 10.0 mi ENE 15.0 mph 20.7 mph N/A   Overcast
12:36 AM 41.0 °F 34.7 °F 30.2 °F 65% 29.46 in 10.0 mi NNE 10.4 mph - N/A   Overcast
12:56 AM 39.2 °F 32.0 °F 30.2 °F 70% 29.46 in 10.0 mi ENE 11.5 mph 18.4 mph N/A   Overcast
1:16 AM 39.2 °F 33.0 °F 30.2 °F 70% 29.46 in 10.0 mi NE 9.2 mph - N/A   Overcast
1:36 AM 39.2 °F 33.6 °F 32.0 °F 75% 29.46 in 7.0 mi NE 8.1 mph - N/A   Overcast
1:56 AM 39.2 °F 34.2 °F 32.0 °F 75% 29.46 in 7.0 mi ENE 6.9 mph - N/A   Mostly Cloudy
2:16 AM 39.2 °F 32.0 °F 32.0 °F 75% 29.47 in 10.0 mi ENE 11.5 mph - N/A   Mostly Cloudy
2:36 AM 39.2 °F 31.6 °F 32.0 °F 75% 29.47 in 8.0 mi ENE 12.7 mph 19.6 mph N/A   Overcast
2:56 AM 39.2 °F 32.0 °F 32.0 °F 75% 29.47 in 5.0 mi ENE 11.5 mph 20.7 mph N/A   Overcast
3:16 AM 39.2 °F 31.2 °F 30.2 °F 70% 29.47 in 8.0 mi ENE 13.8 mph 21.9 mph N/A   Overcast
3:36 AM 39.2 °F 31.6 °F 30.2 °F 70% 29.48 in 10.0 mi East 12.7 mph - N/A   Overcast
3:56 AM 39.2 °F 31.6 °F 30.2 °F 70% 29.47 in 8.0 mi East 12.7 mph - N/A   Overcast
4:16 AM 39.2 °F 31.6 °F 30.2 °F 70% 29.46 in 10.0 mi East 12.7 mph - N/A   Overcast
4:36 AM 39.2 °F 31.2 °F 30.2 °F 70% 29.47 in 10.0 mi ENE 13.8 mph 19.6 mph N/A   Overcast
4:56 AM 39.2 °F 30.5 °F 28.4 °F 65% 29.46 in 10.0 mi ENE 16.1 mph 19.6 mph N/A   Overcast
5:16 AM 39.2 °F 32.0 °F 30.2 °F 70% 29.47 in 10.0 mi NE 11.5 mph 25.3 mph N/A   Overcast
5:36 AM 39.2 °F 29.3 °F 28.4 °F 65% 29.46 in 10.0 mi ENE 20.7 mph 32.2 mph N/A   Mostly Cloudy
5:56 AM 39.2 °F 30.2 °F 28.4 °F 65% 29.46 in 10.0 mi East 17.3 mph 25.3 mph N/A   Scattered Clouds
6:16 AM 39.2 °F 28.5 °F 28.4 °F 65% 29.46 in 10.0 mi East 24.2 mph 27.6 mph N/A   Mostly Cloudy
6:36 AM 39.2 °F 31.6 °F 28.4 °F 65% 29.47 in 10.0 mi ENE 12.7 mph 24.2 mph N/A   Overcast
6:56 AM 39.2 °F 29.6 °F 28.4 °F 65% 29.47 in 10.0 mi East 19.6 mph 24.2 mph N/A   Overcast
7:16 AM 39.2 °F 30.8 °F 28.4 °F 65% 29.48 in 10.0 mi ENE 15.0 mph 23.0 mph N/A   Mostly Cloudy
7:36 AM 37.4 °F 27.8 °F 28.4 °F 70% 29.47 in 10.0 mi East 17.3 mph 34.5 mph N/A   Mostly Cloudy
7:56 AM 39.2 °F 30.5 °F 28.4 °F 65% 29.48 in 10.0 mi ENE 16.1 mph 21.9 mph N/A   Mostly Cloudy
8:16 AM 37.4 °F 27.5 °F 28.4 °F 70% 29.49 in 10.0 mi NE 18.4 mph 23.0 mph N/A   Scattered Clouds
8:36 AM 37.4 °F 27.8 °F 30.2 °F 75% 29.50 in 10.0 mi NE 17.3 mph 24.2 mph N/A   Partly Cloudy
8:56 AM 37.4 °F 29.3 °F 30.2 °F 75% 29.51 in 10.0 mi ENE 12.7 mph - N/A   Scattered Clouds
9:16 AM 39.2 °F 30.8 °F 30.2 °F 70% 29.51 in 10.0 mi ENE 15.0 mph 21.9 mph N/A   Mostly Cloudy
9:36 AM 39.2 °F 32.5 °F 30.2 °F 70% 29.52 in 10.0 mi East 10.4 mph 17.3 mph N/A   Overcast
9:56 AM 39.2 °F 31.2 °F 30.2 °F 70% 29.52 in 10.0 mi NE 13.8 mph 19.6 mph N/A   Mostly Cloudy
10:16 AM 39.2 °F 32.5 °F 30.2 °F 70% 29.53 in 9.0 mi NE 10.4 mph - N/A   Overcast
10:36 AM 39.2 °F 31.2 °F 30.2 °F 70% 29.53 in 9.0 mi ENE 13.8 mph 19.6 mph N/A   Overcast
10:56 AM 39.2 °F 31.6 °F 30.2 °F 70% 29.53 in 10.0 mi NE 12.7 mph - N/A   Overcast
11:36 AM 39.2 °F 32.0 °F 30.2 °F 70% 29.54 in 10.0 mi ENE 11.5 mph - N/A   Mostly Cloudy
11:56 AM 39.2 °F 31.2 °F 30.2 °F 70% 29.54 in 10.0 mi NE 13.8 mph - N/A   Mostly Cloudy
12:16 PM 39.2 °F 34.2 °F 30.2 °F 70% 29.55 in 10.0 mi NE 6.9 mph - N/A   Overcast
12:36 PM 41.0 °F 36.4 °F 32.0 °F 70% 29.55 in 10.0 mi ENE 6.9 mph - N/A   Overcast
12:56 PM 42.8 °F 37.0 °F 32.0 °F 66% 29.55 in 10.0 mi East 10.4 mph 18.4 mph N/A   Overcast
1:16 PM 42.8 °F 36.6 °F 33.8 °F 70% 29.54 in 10.0 mi SE 11.5 mph - N/A   Overcast
1:36 PM 42.8 °F 35.4 °F 33.8 °F 70% 29.55 in 10.0 mi East 15.0 mph 20.7 mph N/A   Overcast
1:56 PM 42.8 °F 38.6 °F 32.0 °F 66% 29.55 in 10.0 mi East 6.9 mph - N/A   Overcast
2:16 PM 42.8 °F 36.2 °F 33.8 °F 70% 29.55 in 10.0 mi East 12.7 mph - N/A   Overcast
2:36 PM 42.8 °F 37.0 °F 33.8 °F 70% 29.55 in 10.0 mi East 10.4 mph - N/A   Overcast
2:56 PM 42.8 °F 38.0 °F 32.0 °F 66% 29.55 in 10.0 mi ENE 8.1 mph - N/A   Overcast
3:16 PM 42.8 °F 37.5 °F 32.0 °F 66% 29.55 in 10.0 mi East 9.2 mph - N/A   Overcast
3:36 PM 42.8 °F 38.0 °F 33.8 °F 70% 29.56 in 10.0 mi East 8.1 mph - N/A   Overcast
3:56 PM 42.8 °F 38.6 °F 33.8 °F 70% 29.56 in 10.0 mi East 6.9 mph - N/A   Overcast
4:16 PM 42.8 °F 38.0 °F 33.8 °F 70% 29.56 in 9.0 mi ESE 8.1 mph - N/A   Overcast
4:36 PM 42.8 °F 38.6 °F 33.8 °F 70% 29.56 in 10.0 mi East 6.9 mph - N/A   Overcast
4:56 PM 42.8 °F 39.3 °F 33.8 °F 70% 29.56 in 10.0 mi ESE 5.8 mph - N/A   Overcast
5:16 PM 42.8 °F 38.6 °F 33.8 °F 70% 29.56 in 10.0 mi ESE 6.9 mph - N/A   Overcast
5:36 PM 42.8 °F 40.1 °F 33.8 °F 70% 29.57 in 10.0 mi ENE 4.6 mph - N/A   Overcast
5:56 PM 42.8 °F 37.5 °F 33.8 °F 70% 29.57 in 10.0 mi West 9.2 mph - N/A   Overcast
6:16 PM 42.8 °F 38.6 °F 33.8 °F 70% 29.58 in 9.0 mi SSE 6.9 mph - N/A   Overcast
6:36 PM 41.0 °F 36.4 °F 33.8 °F 76% 29.59 in 9.0 mi ESE 6.9 mph - N/A   Overcast
6:56 PM 41.0 °F 34.3 °F 33.8 °F 76% 29.59 in 9.0 mi ESE 11.5 mph - N/A   Mostly Cloudy
7:16 PM 41.0 °F 37.1 °F 33.8 °F 76% 29.60 in 10.0 mi East 5.8 mph - N/A   Overcast
7:36 PM 39.2 °F 37.0 °F 33.8 °F 81% 29.60 in 4.0 mi SW 3.5 mph - N/A   Overcast
7:56 PM 39.2 °F 37.0 °F 33.8 °F 81% 29.61 in 8.0 mi SE 3.5 mph - N/A   Overcast
8:16 PM 39.2 °F 33.6 °F 33.8 °F 81% 29.62 in 5.0 mi SE 8.1 mph - N/A   Overcast
8:36 PM 39.2 °F 33.6 °F 33.8 °F 81% 29.62 in 9.0 mi East 8.1 mph - N/A   Overcast
8:56 PM 39.2 °F - 32.0 °F 75% 29.62 in 9.0 mi Calm Calm - N/A   Overcast
9:16 PM 39.2 °F 35.9 °F 33.8 °F 81% 29.63 in 9.0 mi SSE 4.6 mph - N/A   Overcast
9:36 PM 39.2 °F 37.0 °F 33.8 °F 81% 29.62 in 5.0 mi WNW 3.5 mph - N/A   Overcast
9:56 PM 37.4 °F - 32.0 °F 81% 29.63 in 7.0 mi Calm Calm - N/A   Overcast
10:16 PM 37.4 °F 33.8 °F 33.8 °F 87% 29.63 in 7.0 mi SSW 4.6 mph - N/A   Overcast
10:36 PM 39.2 °F - 33.8 °F 81% 29.63 in 10.0 mi Calm Calm - N/A   Overcast
10:56 PM 39.2 °F - 32.0 °F 75% 29.64 in 9.0 mi Calm Calm - N/A   Overcast
11:16 PM 39.2 °F 35.9 °F 33.8 °F 81% 29.64 in 9.0 mi South 4.6 mph - N/A   Overcast
11:36 PM 39.2 °F 35.9 °F 33.8 °F 81% 29.64 in 9.0 mi South 4.6 mph - N/A   Overcast
11:56 PM 39.2 °F - 33.8 °F 81% 29.64 in 10.0 mi Calm Calm - N/A   Overcast